timestamp,wind_dir_avg,wind_spd_avg,wind_spd_max_dir,wind_spd_gust,battery_voltage,lat,long
2023-05-21 00:04:00+00:00,198.0,7.93,201.0,8.83,12.89,47.59359,-54.27349
2023-05-21 00:14:00+00:00,211.0,9.64,207.0,10.47,12.41,47.59359,-54.27349
2023-05-21 00:24:00+00:00,210.0,8.63,212.0,9.61,12.41,47.59359,-54.27349
2023-05-21 00:34:00+00:00,214.0,8.18,216.0,9.29,12.41,47.59359,-54.27349
2023-05-21 00:44:00+00:00,217.0,6.78,214.0,8.16,12.41,47.59359,-54.27349
2023-05-21 00:54:00+00:00,216.0,7.26,217.0,8.08,12.41,47.59359,-54.27349
2023-05-21 01:04:00+00:00,213.0,6.02,217.0,7.38,12.41,47.59359,-54.27349
2023-05-21 01:14:00+00:00,196.0,5.81,200.0,6.56,12.33,47.59359,-54.27349
2023-05-21 01:24:00+00:00,194.0,5.95,195.0,6.8,12.33,47.59359,-54.27349
2023-05-21 01:34:00+00:00,197.0,5.0,196.0,5.76,12.33,47.59359,-54.27349
2023-05-21 01:44:00+00:00,201.0,6.12,201.0,6.7,12.33,47.59359,-54.27349
2023-05-21 01:54:00+00:00,197.0,6.23,209.0,7.19,12.33,47.59359,-54.27349
2023-05-21 02:04:00+00:00,200.0,5.24,201.0,6.2,12.33,47.59359,-54.27349
2023-05-21 02:14:00+00:00,200.0,5.09,190.0,6.11,12.25,47.59359,-54.27349
2023-05-21 02:24:00+00:00,196.0,5.57,195.0,6.38,12.25,47.59359,-54.27349
2023-05-21 02:34:00+00:00,204.0,6.34,205.0,6.96,12.25,47.59359,-54.27349
2023-05-21 02:44:00+00:00,203.0,6.89,208.0,7.64,12.25,47.59359,-54.27349
2023-05-21 02:54:00+00:00,208.0,5.73,213.0,6.58,12.25,47.59359,-54.27349
2023-05-21 03:04:00+00:00,199.0,5.67,206.0,6.57,12.25,47.59359,-54.27349
2023-05-21 03:14:00+00:00,207.0,5.74,196.0,6.43,12.25,47.59359,-54.27349
2023-05-21 03:24:00+00:00,212.0,4.64,212.0,5.25,12.25,47.59359,-54.27349
2023-05-21 03:34:00+00:00,207.0,2.89,216.0,3.5,12.25,47.59359,-54.27349
2023-05-21 03:44:00+00:00,195.0,5.03,196.0,5.89,12.25,47.59359,-54.27349
2023-05-21 03:54:00+00:00,207.0,5.68,209.0,6.4,12.25,47.59359,-54.27349
2023-05-21 04:04:00+00:00,218.0,5.37,220.0,6.0,12.25,47.59359,-54.27349
2023-05-21 04:14:00+00:00,217.0,5.6,213.0,6.45,12.25,47.59359,-54.27349
2023-05-21 04:24:00+00:00,221.0,5.75,224.0,6.52,12.25,47.59359,-54.27349
2023-05-21 04:34:00+00:00,214.0,4.45,219.0,5.18,12.25,47.59359,-54.27349
2023-05-21 04:44:00+00:00,218.0,4.89,217.0,5.48,12.25,47.59359,-54.27349
2023-05-21 04:54:00+00:00,220.0,5.87,225.0,6.93,12.25,47.59359,-54.27349
2023-05-21 05:04:00+00:00,217.0,6.33,217.0,6.89,12.25,47.59359,-54.27349
2023-05-21 05:14:01+00:00,223.0,6.18,216.0,7.29,12.25,47.59359,-54.27349
2023-05-21 05:24:01+00:00,218.0,6.21,216.0,6.94,12.25,47.59359,-54.27349
2023-05-21 05:34:01+00:00,217.0,6.33,216.0,6.99,12.25,47.59359,-54.27349
2023-05-21 05:44:01+00:00,219.0,5.77,216.0,6.46,12.25,47.59359,-54.27349
2023-05-21 05:54:01+00:00,213.0,5.15,215.0,5.86,12.25,47.59359,-54.27349
2023-05-21 06:04:01+00:00,212.0,4.13,214.0,4.77,12.25,47.59359,-54.27349
2023-05-21 06:14:00+00:00,213.0,5.62,211.0,6.3,12.17,47.59359,-54.27349
2023-05-21 06:24:00+00:00,214.0,5.02,215.0,5.97,12.17,47.59359,-54.27349
2023-05-21 06:34:00+00:00,214.0,6.07,215.0,7.17,12.17,47.59359,-54.27349
2023-05-21 06:44:00+00:00,214.0,7.24,214.0,7.84,12.17,47.59359,-54.27349
2023-05-21 06:54:00+00:00,213.0,7.75,214.0,8.81,12.17,47.59359,-54.27349
2023-05-21 07:04:00+00:00,215.0,8.06,212.0,9.34,12.17,47.59359,-54.27349
2023-05-21 07:14:00+00:00,215.0,7.08,216.0,7.93,12.17,47.59359,-54.27349
2023-05-21 07:24:00+00:00,220.0,7.1,219.0,8.28,12.17,47.59359,-54.27349
2023-05-21 07:34:00+00:00,222.0,6.46,220.0,7.62,12.17,47.59359,-54.27349
2023-05-21 07:44:00+00:00,216.0,6.08,214.0,7.07,12.17,47.59359,-54.27349
2023-05-21 07:54:00+00:00,216.0,7.2,220.0,8.31,12.17,47.59359,-54.27349
2023-05-21 08:04:00+00:00,211.0,7.16,216.0,8.05,12.17,47.59359,-54.27349
2023-05-21 08:14:00+00:00,213.0,7.06,217.0,8.14,12.09,47.59359,-54.27349
2023-05-21 08:24:00+00:00,212.0,7.78,213.0,8.38,12.09,47.59359,-54.27349
2023-05-21 08:34:00+00:00,205.0,7.76,206.0,8.56,12.09,47.59359,-54.27349
2023-05-21 08:44:00+00:00,209.0,7.82,208.0,8.63,12.09,47.59359,-54.27349
2023-05-21 08:54:00+00:00,207.0,7.61,216.0,8.21,12.09,47.59359,-54.27349
2023-05-21 09:04:00+00:00,210.0,7.38,212.0,8.39,12.09,47.59359,-54.27349
2023-05-21 09:14:00+00:00,207.0,6.91,208.0,7.94,12.17,47.59359,-54.27349
2023-05-21 09:24:00+00:00,207.0,7.32,209.0,7.98,12.17,47.59359,-54.27349
2023-05-21 09:34:00+00:00,210.0,7.7,211.0,8.38,12.17,47.59359,-54.27349
2023-05-21 09:44:00+00:00,214.0,8.05,211.0,9.16,12.17,47.59359,-54.27349
2023-05-21 09:54:00+00:00,214.0,8.1,214.0,9.04,12.17,47.59359,-54.27349
2023-05-21 10:04:00+00:00,216.0,8.52,216.0,9.49,12.17,47.59359,-54.27349
2023-05-21 10:14:00+00:00,218.0,8.95,219.0,10.12,12.81,47.59359,-54.27349
2023-05-21 10:24:00+00:00,216.0,8.49,215.0,10.08,12.81,47.59359,-54.27349
2023-05-21 10:34:00+00:00,217.0,9.31,217.0,10.74,12.81,47.59359,-54.27349
2023-05-21 10:44:00+00:00,214.0,9.07,216.0,9.74,12.81,47.59359,-54.27349
2023-05-21 10:54:00+00:00,216.0,9.63,219.0,10.57,12.81,47.59359,-54.27349
2023-05-21 11:04:00+00:00,216.0,8.79,216.0,9.58,12.81,47.59359,-54.27349
2023-05-21 11:14:00+00:00,214.0,8.67,217.0,9.81,13.76,47.59359,-54.27349
2023-05-21 11:24:00+00:00,211.0,8.59,209.0,9.5,13.76,47.59359,-54.27349
2023-05-21 11:34:00+00:00,207.0,8.94,211.0,9.98,13.76,47.59359,-54.27349
2023-05-21 11:44:00+00:00,215.0,9.66,216.0,10.74,13.76,47.59359,-54.27349
2023-05-21 11:54:00+00:00,213.0,8.55,214.0,10.33,13.76,47.59359,-54.27349
2023-05-21 12:04:00+00:00,206.0,7.9,208.0,8.83,13.76,47.59359,-54.27349
2023-05-21 12:14:00+00:00,206.0,8.14,211.0,9.2,13.76,47.59359,-54.27349
2023-05-21 12:24:00+00:00,205.0,8.52,209.0,9.74,13.76,47.59359,-54.27349
2023-05-21 12:34:00+00:00,200.0,9.99,205.0,11.04,13.76,47.59359,-54.27349
2023-05-21 12:44:00+00:00,202.0,9.51,208.0,10.79,13.76,47.59359,-54.27349
2023-05-21 12:54:00+00:00,203.0,10.12,208.0,11.65,13.76,47.59359,-54.27349
2023-05-21 13:04:00+00:00,208.0,9.99,214.0,11.09,13.76,47.59359,-54.27349
2023-05-21 13:14:00+00:00,207.0,9.8,209.0,10.89,13.84,47.59359,-54.27349
2023-05-21 13:24:00+00:00,207.0,10.1,209.0,11.42,13.84,47.59359,-54.27349
2023-05-21 13:34:00+00:00,211.0,10.54,210.0,11.97,13.84,47.59359,-54.27349
2023-05-21 13:44:00+00:00,207.0,8.55,209.0,9.91,13.84,47.59359,-54.27349
2023-05-21 13:54:00+00:00,203.0,9.53,206.0,10.57,13.84,47.59359,-54.27349
2023-05-21 14:04:00+00:00,208.0,9.12,213.0,10.04,13.84,47.59359,-54.27349
2023-05-21 14:14:00+00:00,202.0,9.21,199.0,10.87,14.16,47.59359,-54.27349
2023-05-21 14:24:00+00:00,201.0,9.45,204.0,10.95,14.16,47.59359,-54.27349
2023-05-21 14:34:00+00:00,204.0,9.34,207.0,10.78,14.16,47.59359,-54.27349
2023-05-21 14:44:00+00:00,209.0,9.33,217.0,10.46,14.16,47.59359,-54.27349
2023-05-21 14:54:00+00:00,208.0,8.78,215.0,10.31,14.16,47.59359,-54.27349
2023-05-21 15:04:00+00:00,205.0,9.25,207.0,10.81,14.16,47.59359,-54.27349
2023-05-21 15:14:00+00:00,204.0,8.92,200.0,10.71,14.4,47.59359,-54.27349
2023-05-21 15:24:00+00:00,204.0,9.38,206.0,11.09,14.4,47.59359,-54.27349
2023-05-21 15:34:00+00:00,206.0,10.04,206.0,11.68,14.4,47.59359,-54.27349
2023-05-21 15:44:00+00:00,211.0,11.01,218.0,13.48,14.4,47.59359,-54.27349
2023-05-21 15:54:00+00:00,215.0,8.39,214.0,9.55,14.4,47.59359,-54.27349
2023-05-21 16:04:00+00:00,213.0,9.58,215.0,11.39,14.4,47.59359,-54.27349
2023-05-21 16:14:00+00:00,215.0,10.6,214.0,12.5,13.68,47.59359,-54.27349
2023-05-21 16:24:00+00:00,214.0,9.46,213.0,12.46,13.68,47.59359,-54.27349
2023-05-21 16:34:00+00:00,214.0,11.61,216.0,13.72,13.68,47.59359,-54.27349
2023-05-21 16:44:00+00:00,214.0,12.16,213.0,14.93,13.68,47.59359,-54.27349
2023-05-21 16:54:00+00:00,213.0,12.33,211.0,15.18,13.68,47.59359,-54.27349
2023-05-21 17:04:00+00:00,215.0,11.15,216.0,13.1,13.68,47.59359,-54.27349
2023-05-21 17:14:00+00:00,218.0,9.32,222.0,10.44,13.68,47.59359,-54.27349
2023-05-21 17:24:00+00:00,225.0,7.53,224.0,9.31,13.68,47.59359,-54.27349
2023-05-21 17:34:00+00:00,229.0,8.85,222.0,10.48,13.68,47.59359,-54.27349
2023-05-21 17:44:00+00:00,233.0,10.27,236.0,12.74,13.68,47.59359,-54.27349
2023-05-21 17:54:00+00:00,223.0,10.69,222.0,12.0,13.68,47.59359,-54.27349
2023-05-21 18:04:00+00:00,227.0,10.29,234.0,11.88,13.68,47.59359,-54.27349
2023-05-21 18:14:00+00:00,228.0,10.26,231.0,11.89,13.6,47.59359,-54.27349
2023-05-21 18:24:00+00:00,227.0,9.24,230.0,10.28,13.6,47.59359,-54.27349
2023-05-21 18:34:00+00:00,225.0,9.63,219.0,11.13,13.6,47.59359,-54.27349
2023-05-21 18:44:00+00:00,222.0,8.87,217.0,9.98,13.6,47.59359,-54.27349
2023-05-21 18:54:00+00:00,227.0,10.02,235.0,12.24,13.6,47.59359,-54.27349
2023-05-21 19:04:00+00:00,227.0,9.64,232.0,11.01,13.6,47.59359,-54.27349
2023-05-21 19:14:00+00:00,227.0,9.61,232.0,11.81,13.68,47.59359,-54.27349
2023-05-21 19:24:00+00:00,224.0,10.9,232.0,12.73,13.68,47.59359,-54.27349
2023-05-21 19:34:00+00:00,221.0,10.94,218.0,12.41,13.68,47.59359,-54.27349
2023-05-21 19:44:00+00:00,219.0,10.76,220.0,12.16,13.68,47.59359,-54.27349
2023-05-21 19:54:00+00:00,220.0,10.37,222.0,12.15,13.68,47.59359,-54.27349
2023-05-21 20:04:00+00:00,217.0,11.55,224.0,14.04,13.68,47.59359,-54.27349
2023-05-21 20:14:00+00:00,218.0,11.99,226.0,14.35,13.68,47.59359,-54.27349
2023-05-21 20:24:00+00:00,220.0,10.91,218.0,12.17,13.68,47.59359,-54.27349
2023-05-21 20:34:00+00:00,219.0,12.08,222.0,14.22,13.68,47.59359,-54.27349
2023-05-21 20:44:00+00:00,219.0,12.16,225.0,14.81,13.68,47.59359,-54.27349
2023-05-21 20:54:00+00:00,217.0,11.1,217.0,12.52,13.68,47.59359,-54.27349
2023-05-21 21:04:00+00:00,214.0,10.74,217.0,12.02,13.68,47.59359,-54.27349
2023-05-21 21:14:00+00:00,217.0,10.51,228.0,12.78,13.68,47.59359,-54.27349
2023-05-21 21:24:00+00:00,225.0,10.15,232.0,12.4,13.68,47.59359,-54.27349
2023-05-21 21:34:00+00:00,216.0,10.22,215.0,11.36,13.68,47.59359,-54.27349
2023-05-21 21:44:00+00:00,217.0,9.92,212.0,11.4,13.68,47.59359,-54.27349
2023-05-21 21:54:00+00:00,218.0,11.73,219.0,14.66,13.68,47.59359,-54.27349
2023-05-21 22:04:00+00:00,225.0,12.42,233.0,13.99,13.68,47.59359,-54.27349
2023-05-21 22:14:00+00:00,231.0,14.26,223.0,16.14,13.44,47.59359,-54.27349
2023-05-21 22:24:00+00:00,226.0,12.26,234.0,15.51,13.44,47.59359,-54.27349
2023-05-21 22:34:00+00:00,232.0,14.0,234.0,15.47,13.44,47.59359,-54.27349
2023-05-21 22:44:00+00:00,224.0,11.25,222.0,12.67,13.44,47.59359,-54.27349
2023-05-21 22:54:00+00:00,234.0,10.78,236.0,12.26,13.44,47.59359,-54.27349
2023-05-21 23:04:00+00:00,226.0,13.14,225.0,14.82,13.44,47.59359,-54.27349
2023-05-21 23:14:00+00:00,225.0,11.97,235.0,14.02,12.89,47.59359,-54.27349
2023-05-21 23:24:00+00:00,233.0,10.98,240.0,13.93,12.89,47.59359,-54.27349
2023-05-21 23:34:00+00:00,236.0,11.65,236.0,14.33,12.89,47.59359,-54.27349
2023-05-21 23:44:00+00:00,229.0,9.98,241.0,14.46,12.89,47.59359,-54.27349
2023-05-21 23:54:00+00:00,234.0,9.15,238.0,12.23,12.89,47.59359,-54.27349
